M I D A S
Marine Information and Data Acquisition System
Tripno 1673 of the Zeeleeuw from 2009-04-08 07:38:57 to 2009-04-08 15:30:15
Back to CruiseResearch ActivitiesStationsMapUnderway DataData graphs

EquipmentUnitsComments
TimeDGPSUTC
LatitudeDGPSDM.mWGS84
LongitudeDGPSDM.mWGS84
SpeedMeteo Stationm/sRelative wind speed
DirectionMeteo StationdegRelative wind direction
TemperatureMeteo Stationdeg CelciusAir temperature
PressureMeteo StationPaAtmospheric pressure
HumidityMeteo Station%Relative humidity
Missing or incorrect values are displayed as -999
Metereological data collected by the RV Zeeleeuw from 2009-04-08 07:39:33 to 2009-04-08 15:44:35
                                                                                    Next 1000 lines
Time Latitude Longitude Speed Direction Temperature Pressure Humidity
2009-04-08 07:39:43 51°13.664 2°55.955 3.6 11 7.9 100710 95
2009-04-08 07:39:48 51°13.665 2°55.951 4.8 24 7.9 100710 95
2009-04-08 07:39:53 51°13.666 2°55.947 5.3 24 7.9 100710 95
2009-04-08 07:39:58 51°13.668 2°55.942 4.3 17 7.9 100710 95
2009-04-08 07:40:03 51°13.67 2°55.937 3.4 12 7.9 100710 95
2009-04-08 07:40:09 51°13.672 2°55.93 3.2 25 7.9 100710 95
2009-04-08 07:40:14 51°13.674 2°55.924 3.5 28 7.9 100720 95
2009-04-08 07:40:19 51°13.676 2°55.917 2 28 7.9 100720 95
2009-04-08 07:40:24 51°13.677 2°55.91 3.3 7 7.9 100720 95
2009-04-08 07:40:29 51°13.679 2°55.903 3.3 39 7.9 100720 95
2009-04-08 07:40:34 51°13.681 2°55.895 3.6 13 7.9 100720 95
2009-04-08 07:40:39 51°13.683 2°55.888 3.6 20 7.9 100720 95
2009-04-08 07:40:44 51°13.684 2°55.88 3.3 22 7.9 100720 95
2009-04-08 07:40:49 51°13.685 2°55.872 5.9 34 7.9 100720 95
2009-04-08 07:40:54 51°13.686 2°55.865 6.3 30 7.9 100710 95
2009-04-08 07:40:59 51°13.687 2°55.857 5.9 31 7.9 100710 95
2009-04-08 07:41:04 51°13.689 2°55.848 5.3 26 7.9 100710 95
2009-04-08 07:41:09 51°13.689 2°55.84 3.9 7 7.9 100710 95
2009-04-08 07:41:14 51°13.69 2°55.832 3.5 3 7.9 100710 95
2009-04-08 07:41:19 51°13.691 2°55.824 4.3 15 7.9 100710 95
2009-04-08 07:41:24 51°13.691 2°55.816 4.9 30 7.9 100710 95
2009-04-08 07:41:29 51°13.692 2°55.809 2.7 36 7.9 100710 95
2009-04-08 07:41:34 51°13.692 2°55.802 3.2 20 7.8 100710 95
2009-04-08 07:41:39 51°13.692 2°55.795 3.4 37 7.8 100710 95
2009-04-08 07:41:44 51°13.691 2°55.788 4.5 29 7.9 100710 95
2009-04-08 07:41:49 51°13.691 2°55.782 4.5 35 7.9 100710 95
2009-04-08 07:41:54 51°13.691 2°55.776 5.5 29 7.9 100710 95
2009-04-08 07:41:59 51°13.691 2°55.771 5.1 38 7.9 100710 95
2009-04-08 07:42:03 51°13.69 2°55.766 4.9 44 7.9 100710 95
2009-04-08 07:42:08 51°13.69 2°55.761 5.5 32 7.9 100710 95
2009-04-08 07:42:13 51°13.69 2°55.757 6 37 7.9 100710 95
2009-04-08 07:42:18 51°13.69 2°55.753 6.9 33 7.9 100710 95
2009-04-08 07:42:23 51°13.689 2°55.75 4.9 38 7.9 100710 95
2009-04-08 07:42:28 51°13.69 2°55.748 6.3 56 7.9 100710 95
2009-04-08 07:42:33 51°13.69 2°55.746 5.7 24 7.9 100700 95
2009-04-08 07:42:37 51°13.69 2°55.745 5 25 7.9 100700 95
2009-04-08 07:42:42 51°13.691 2°55.745 3.6 36 7.9 100710 95
2009-04-08 07:42:47 51°13.692 2°55.745 3.9 45 7.9 100710 95
2009-04-08 07:42:52 51°13.693 2°55.746 5.4 37 7.8 100710 95
2009-04-08 07:42:56 51°13.694 2°55.746 6.1 43 7.8 100710 95
2009-04-08 07:43:02 51°13.696 2°55.747 6.5 21 7.9 100710 95
2009-04-08 07:43:07 51°13.698 2°55.747 4.3 58 7.9 100710 95
2009-04-08 07:43:11 51°13.7 2°55.748 4 25 7.9 100710 95
2009-04-08 07:43:16 51°13.703 2°55.748 3.6 56 7.9 100710 95
2009-04-08 07:43:21 51°13.705 2°55.748 3.2 24 7.9 100710 95
2009-04-08 07:43:26 51°13.708 2°55.748 4.2 52 7.9 100710 95
2009-04-08 07:43:31 51°13.711 2°55.747 5.8 23 7.9 100720 95
2009-04-08 07:43:35 51°13.714 2°55.746 4 53 7.9 100720 95
2009-04-08 07:43:40 51°13.718 2°55.744 4.6 21 7.9 100720 95
2009-04-08 07:43:45 51°13.721 2°55.741 6.1 310 7.9 100720 95
2009-04-08 07:43:50 51°13.725 2°55.738 3.6 262 7.9 100710 95
2009-04-08 07:43:55 51°13.73 2°55.734 4.9 54 7.9 100710 95
2009-04-08 07:44:00 51°13.734 2°55.729 4.4 26 7.9 100710 94
2009-04-08 07:44:05 51°13.74 2°55.724 4.5 307 7.9 100710 94
2009-04-08 07:44:10 51°13.745 2°55.718 4.4 23 7.9 100720 94
2009-04-08 07:44:15 51°13.751 2°55.712 5 55 7.9 100720 94
2009-04-08 07:44:20 51°13.757 2°55.705 5.1 19 7.9 100720 94
2009-04-08 07:44:25 51°13.763 2°55.698 4.1 50 7.9 100720 94
2009-04-08 07:44:30 51°13.77 2°55.691 6.5 25 7.9 100710 94
2009-04-08 07:44:35 51°13.777 2°55.684 4.4 57 7.9 100710 94
2009-04-08 07:44:39 51°13.783 2°55.678 4.5 22 7.9 100720 94
2009-04-08 07:44:45 51°13.792 2°55.669 7 54 7.9 100720 94
2009-04-08 07:44:51 51°13.802 2°55.659 6.8 20 7.9 100720 94
2009-04-08 07:44:55 51°13.809 2°55.653 3.9 81 7.9 100720 94
2009-04-08 07:45:00 51°13.818 2°55.646 5 21 7.9 100710 93
2009-04-08 07:45:05 51°13.827 2°55.638 2.9 311 7.9 100710 93
2009-04-08 07:45:10 51°13.837 2°55.63 3.6 29 7.9 100700 93
2009-04-08 07:45:15 51°13.846 2°55.622 3 50 7.9 100700 93
2009-04-08 07:45:20 51°13.856 2°55.614 2.4 24 7.9 100700 93
2009-04-08 07:45:25 51°13.866 2°55.607 2.7 50 7.9 100700 93
2009-04-08 07:45:30 51°13.876 2°55.599 2.6 26 7.9 100700 93
2009-04-08 07:45:35 51°13.887 2°55.591 5.1 52 7.9 100700 93
2009-04-08 07:45:39 51°13.895 2°55.584 4 19 7.9 100700 93
2009-04-08 07:45:45 51°13.908 2°55.574 4.3 51 7.9 100700 93
2009-04-08 07:45:50 51°13.919 2°55.566 3.5 24 8 100700 94
2009-04-08 07:45:55 51°13.929 2°55.558 3.8 51 8 100700 94
2009-04-08 07:45:59 51°13.938 2°55.551 4.3 259 8 100690 94
2009-04-08 07:46:05 51°13.952 2°55.542 3.5 53 8 100690 94
2009-04-08 07:46:10 51°13.963 2°55.534 2.6 20 8 100700 94
2009-04-08 07:46:15 51°13.974 2°55.526 3.2 303 8 100700 94
2009-04-08 07:46:20 51°13.985 2°55.518 2.1 250 8 100700 94
2009-04-08 07:46:25 51°13.996 2°55.51 2.8 309 8 100700 94
2009-04-08 07:46:30 51°14.007 2°55.502 3.7 23 8 100710 94
2009-04-08 07:46:35 51°14.019 2°55.494 1.9 309 8 100710 94
2009-04-08 07:46:40 51°14.03 2°55.486 2.4 25 8 100710 94
2009-04-08 07:46:45 51°14.041 2°55.478 2.5 303 8 100710 94
2009-04-08 07:46:51 51°14.055 2°55.468 2.4 251 8 100710 94
2009-04-08 07:46:55 51°14.064 2°55.462 3.9 287 8 100710 94
2009-04-08 07:46:59 51°14.072 2°55.455 2.3 22 8 100710 93
2009-04-08 07:47:05 51°14.086 2°55.445 2.5 308 8 100710 93
2009-04-08 07:47:10 51°14.097 2°55.436 1.7 20 8 100710 93
2009-04-08 07:47:15 51°14.108 2°55.427 3.4 310 8 100710 93
2009-04-08 07:47:20 51°14.12 2°55.418 3.7 315 8 100710 93
2009-04-08 07:47:25 51°14.131 2°55.409 4.7 305 8 100710 93
2009-04-08 07:47:30 51°14.142 2°55.399 6.1 21 8 100700 93
2009-04-08 07:47:35 51°14.153 2°55.389 4.2 305 8 100700 93
2009-04-08 07:47:40 51°14.163 2°55.378 4.2 257 8 100700 93
2009-04-08 07:47:45 51°14.174 2°55.367 7.5 302 8 100700 93
2009-04-08 07:47:50 51°14.184 2°55.355 7.8 253 8 100700 93
2009-04-08 07:47:55 51°14.194 2°55.343 6.6 305 8 100700 93
2009-04-08 07:48:00 51°14.205 2°55.332 4.5 251 8 100700 93
2009-04-08 07:48:05 51°14.216 2°55.32 3.4 307 8 100700 93
2009-04-08 07:48:10 51°14.226 2°55.307 5.7 246 8 100710 93
2009-04-08 07:48:15 51°14.236 2°55.295 5.1 308 8 100710 93
2009-04-08 07:48:20 51°14.245 2°55.281 5.1 26 8 100700 93
2009-04-08 07:48:25 51°14.255 2°55.267 6.5 303 8 100700 93
2009-04-08 07:48:30 51°14.263 2°55.253 6 19 8 100710 93
2009-04-08 07:48:35 51°14.273 2°55.238 9.4 309 8 100710 93
2009-04-08 07:48:40 51°14.281 2°55.223 8 24 8 100710 93
2009-04-08 07:48:45 51°14.289 2°55.208 7.7 311 8 100710 93
2009-04-08 07:48:50 51°14.298 2°55.192 6.6 21 8 100710 93
2009-04-08 07:48:55 51°14.306 2°55.176 7.5 284 8 100710 93
2009-04-08 07:49:00 51°14.314 2°55.159 9.3 24 8 100710 93
2009-04-08 07:49:05 51°14.322 2°55.143 9.6 306 8 100710 93
2009-04-08 07:49:10 51°14.33 2°55.126 6.3 23 8 100710 93
2009-04-08 07:49:15 51°14.338 2°55.109 7.9 306 8 100710 93
2009-04-08 07:49:20 51°14.346 2°55.092 5.9 20 8 100710 93
2009-04-08 07:49:24 51°14.353 2°55.077 10 304 8 100710 93
2009-04-08 07:49:30 51°14.363 2°55.056 8.2 27 8 100710 93
2009-04-08 07:49:35 51°14.372 2°55.039 8.3 302 8 100710 93
2009-04-08 07:49:40 51°14.381 2°55.022 11.1 256 8 100700 93
2009-04-08 07:49:45 51°14.39 2°55.005 6.2 310 8 100700 93
2009-04-08 07:49:50 51°14.4 2°54.988 7.3 250 8 100710 93
2009-04-08 07:49:55 51°14.41 2°54.971 8.9 309 8 100710 93
2009-04-08 07:50:00 51°14.42 2°54.954 7.5 254 8 100700 93
2009-04-08 07:50:05 51°14.431 2°54.938 8.2 309 8 100700 93
2009-04-08 07:50:10 51°14.442 2°54.923 8.7 261 8 100710 93
2009-04-08 07:50:15 51°14.454 2°54.909 8.1 303 8 100710 93
2009-04-08 07:50:19 51°14.464 2°54.898 8.4 261 8 100700 93
2009-04-08 07:50:25 51°14.48 2°54.883 6.8 305 8 100700 93
2009-04-08 07:50:30 51°14.493 2°54.87 5.4 267 8 100700 93
2009-04-08 07:50:35 51°14.506 2°54.858 6.7 61 8 100700 93
2009-04-08 07:50:39 51°14.517 2°54.848 5.5 26 8 100710 93
2009-04-08 07:50:45 51°14.532 2°54.832 4.9 311 8 100710 93
2009-04-08 07:50:50 51°14.546 2°54.819 5.6 262 8 100710 93
2009-04-08 07:50:55 51°14.559 2°54.806 4 285 8 100710 93
2009-04-08 07:51:00 51°14.573 2°54.792 6.6 259 7.9 100710 93
2009-04-08 07:51:05 51°14.587 2°54.779 5.2 311 7.9 100710 93
2009-04-08 07:51:10 51°14.601 2°54.765 5.8 258 7.9 100700 93
2009-04-08 07:51:15 51°14.614 2°54.752 6.9 301 7.9 100700 93
2009-04-08 07:51:20 51°14.628 2°54.739 5.9 261 7.9 100700 93
2009-04-08 07:51:25 51°14.642 2°54.726 6.3 310 7.9 100700 93
2009-04-08 07:51:30 51°14.656 2°54.712 6.5 264 7.9 100700 93
2009-04-08 07:51:35 51°14.67 2°54.699 8.2 285 7.9 100700 93
2009-04-08 07:51:39 51°14.681 2°54.688 6.3 268 7.9 100700 94
2009-04-08 07:51:45 51°14.698 2°54.672 6.4 283 7.9 100700 94
2009-04-08 07:51:50 51°14.712 2°54.658 5.5 262 7.9 100710 94
2009-04-08 07:51:55 51°14.726 2°54.645 8.3 -999 7.9 100710 94
2009-04-08 07:52:00 51°14.74 2°54.631 8.9 257 7.9 100710 93
2009-04-08 07:52:05 51°14.754 2°54.617 7.9 304 7.9 100710 93
2009-04-08 07:52:10 51°14.767 2°54.603 6.3 261 7.9 100710 93
2009-04-08 07:52:15 51°14.781 2°54.589 6 305 7.9 100710 93
2009-04-08 07:52:20 51°14.795 2°54.576 12.3 257 7.9 100700 94
2009-04-08 07:52:25 51°14.809 2°54.562 11.7 302 7.9 100700 94
2009-04-08 07:52:30 51°14.823 2°54.548 8.9 260 7.9 100700 94
2009-04-08 07:52:35 51°14.836 2°54.535 6.5 286 7.9 100700 94
2009-04-08 07:52:40 51°14.85 2°54.521 6.3 263 7.9 100710 94
2009-04-08 07:52:45 51°14.864 2°54.508 5.9 279 7.9 100710 94
2009-04-08 07:52:50 51°14.878 2°54.494 5.9 269 7.9 100700 94
2009-04-08 07:52:55 51°14.892 2°54.481 4.1 282 7.9 100700 94
2009-04-08 07:53:00 51°14.905 2°54.467 5.3 264 7.9 100700 94
2009-04-08 07:53:05 51°14.919 2°54.454 7.5 309 7.9 100700 94
2009-04-08 07:53:10 51°14.933 2°54.441 4.6 263 7.9 100710 94
2009-04-08 07:53:15 51°14.947 2°54.427 7 84 7.9 100710 94
2009-04-08 07:53:20 51°14.961 2°54.414 5.5 266 7.9 100700 94
2009-04-08 07:53:25 51°14.975 2°54.401 6.9 81 7.9 100700 94
2009-04-08 07:53:30 51°14.988 2°54.388 5.1 259 7.9 100700 94
2009-04-08 07:53:35 51°15.002 2°54.374 5.4 285 7.9 100700 94
2009-04-08 07:53:39 51°15.013 2°54.364 5.5 269 7.9 100710 94
2009-04-08 07:53:45 51°15.03 2°54.347 5.5 280 7.9 100710 94
2009-04-08 07:53:50 51°15.044 2°54.334 4.9 265 7.9 100700 94
2009-04-08 07:53:55 51°15.057 2°54.32 5.8 281 7.9 100700 94
2009-04-08 07:54:00 51°15.071 2°54.306 6.5 265 7.9 100700 94
2009-04-08 07:54:05 51°15.084 2°54.292 6.4 285 7.9 100700 94
2009-04-08 07:54:10 51°15.098 2°54.278 7.3 269 7.9 100690 94
2009-04-08 07:54:15 51°15.112 2°54.264 7.8 279 7.9 100690 94
2009-04-08 07:54:20 51°15.125 2°54.25 7 262 7.9 100700 94
2009-04-08 07:54:25 51°15.139 2°54.236 4.6 282 7.9 100700 94
2009-04-08 07:54:30 51°15.153 2°54.222 6.8 31 7.9 100700 94
2009-04-08 07:54:35 51°15.166 2°54.209 6.6 308 7.9 100700 94
2009-04-08 07:54:39 51°15.177 2°54.198 9.3 25 7.9 100700 94
2009-04-08 07:54:45 51°15.194 2°54.182 9 306 7.9 100700 94
2009-04-08 07:54:50 51°15.208 2°54.169 7.8 265 7.9 100700 94
2009-04-08 07:54:55 51°15.222 2°54.155 5.7 286 7.9 100700 94
2009-04-08 07:54:59 51°15.233 2°54.144 8.7 27 7.9 100700 94
2009-04-08 07:55:05 51°15.25 2°54.129 6.1 309 7.9 100700 94
2009-04-08 07:55:10 51°15.264 2°54.115 5.4 262 7.9 100700 94
2009-04-08 07:55:15 51°15.278 2°54.102 9.6 285 7.9 100700 94
2009-04-08 07:55:20 51°15.291 2°54.089 9.6 26 7.9 100700 94
2009-04-08 07:55:25 51°15.306 2°54.076 7.6 310 7.9 100700 94
2009-04-08 07:55:30 51°15.319 2°54.062 7.9 270 7.9 100700 94
2009-04-08 07:55:35 51°15.333 2°54.048 7.7 14 7.9 100700 94
2009-04-08 07:55:40 51°15.347 2°54.035 7.2 339 7.9 100700 94
2009-04-08 07:55:45 51°15.361 2°54.021 8.4 284 7.9 100700 94
2009-04-08 07:55:50 51°15.375 2°54.007 4.9 263 7.9 100700 94
2009-04-08 07:55:55 51°15.389 2°53.994 5.6 283 7.9 100700 94
2009-04-08 07:55:59 51°15.4 2°53.983 6.2 267 7.9 100700 94
2009-04-08 07:56:05 51°15.417 2°53.967 6.5 280 7.9 100700 94
2009-04-08 07:56:10 51°15.431 2°53.953 6.5 265 8 100700 94
2009-04-08 07:56:15 51°15.444 2°53.939 8.6 282 8 100700 94
2009-04-08 07:56:20 51°15.459 2°53.926 8.7 264 8 100700 94
2009-04-08 07:56:25 51°15.472 2°53.912 6 285 8 100700 94
2009-04-08 07:56:30 51°15.486 2°53.899 7 269 8 100700 94
2009-04-08 07:56:35 51°15.5 2°53.885 7.4 280 8 100700 94
2009-04-08 07:56:40 51°15.514 2°53.872 7 268 8 100700 94
2009-04-08 07:56:45 51°15.528 2°53.858 9.8 283 8 100700 94
2009-04-08 07:56:50 51°15.541 2°53.844 7.9 270 8 100700 94
2009-04-08 07:56:55 51°15.555 2°53.831 5.8 283 8 100700 94
2009-04-08 07:56:59 51°15.566 2°53.82 8 29 7.9 100710 94
2009-04-08 07:57:05 51°15.583 2°53.804 5.7 310 7.9 100710 94
2009-04-08 07:57:10 51°15.596 2°53.79 8 270 7.9 100700 93
2009-04-08 07:57:15 51°15.61 2°53.776 8 279 7.9 100700 93
2009-04-08 07:57:19 51°15.621 2°53.765 5.6 270 7.9 100700 94
2009-04-08 07:57:25 51°15.638 2°53.749 5.1 309 7.9 100700 94
2009-04-08 07:57:30 51°15.652 2°53.735 4.9 267 7.9 100700 93
2009-04-08 07:57:35 51°15.666 2°53.722 4.6 280 7.9 100700 93
2009-04-08 07:57:40 51°15.679 2°53.708 8.3 269 8 100700 93
2009-04-08 07:57:45 51°15.693 2°53.694 7.6 55 8 100700 93
2009-04-08 07:57:50 51°15.707 2°53.68 7.8 29 8 100690 94
2009-04-08 07:57:55 51°15.721 2°53.667 5.4 304 8 100690 94
2009-04-08 07:57:59 51°15.732 2°53.656 6.1 266 8 100690 94
2009-04-08 07:58:05 51°15.748 2°53.639 5.9 281 8 100690 94
2009-04-08 07:58:10 51°15.762 2°53.625 7.4 268 8 100700 94
2009-04-08 07:58:15 51°15.776 2°53.612 8.1 11 8 100700 94
2009-04-08 07:58:19 51°15.787 2°53.601 5.7 262 8 100710 94
2009-04-08 07:58:25 51°15.804 2°53.585 8.2 286 8 100710 94
2009-04-08 07:58:30 51°15.818 2°53.572 7.6 269 8 100700 94
2009-04-08 07:58:35 51°15.832 2°53.56 8.7 281 8 100700 94
2009-04-08 07:58:40 51°15.846 2°53.547 6.5 262 8 100700 94
2009-04-08 07:58:45 51°15.86 2°53.534 8.2 309 8 100700 94
2009-04-08 07:58:50 51°15.874 2°53.521 10.9 26 8 100700 94
2009-04-08 07:58:55 51°15.888 2°53.509 8.1 76 8 100700 94
2009-04-08 07:59:00 51°15.903 2°53.496 8.1 20 8 100700 94
2009-04-08 07:59:05 51°15.917 2°53.483 8.4 281 8 100700 94
2009-04-08 07:59:10 51°15.93 2°53.47 6.7 270 8 100700 94
2009-04-08 07:59:15 51°15.945 2°53.457 9.2 84 8 100700 94
2009-04-08 07:59:19 51°15.956 2°53.446 8.5 20 8 100690 94
2009-04-08 07:59:25 51°15.972 2°53.43 9.5 312 8 100690 94
2009-04-08 07:59:30 51°15.987 2°53.418 5.5 268 8 100690 94
2009-04-08 07:59:35 51°16.001 2°53.404 5.7 285 8 100690 94
2009-04-08 07:59:40 51°16.015 2°53.392 8.3 270 8 100680 94
2009-04-08 07:59:45 51°16.029 2°53.378 6.3 312 8 100680 94
2009-04-08 07:59:50 51°16.043 2°53.365 5.6 263 8 100680 94
2009-04-08 07:59:55 51°16.056 2°53.352 4.8 280 8 100680 94
2009-04-08 08:00:00 51°16.071 2°53.339 6.8 259 8 100680 94
2009-04-08 08:00:05 51°16.085 2°53.326 7.1 309 8 100680 94
2009-04-08 08:00:10 51°16.098 2°53.312 9.3 23 8 100690 94
2009-04-08 08:00:15 51°16.112 2°53.299 8.4 59 8 100690 94
2009-04-08 08:00:19 51°16.124 2°53.289 7.1 268 8 100690 94
2009-04-08 08:00:25 51°16.14 2°53.273 8.5 81 8 100690 94
2009-04-08 08:00:30 51°16.155 2°53.26 7.6 267 8 100690 94
2009-04-08 08:00:35 51°16.169 2°53.248 8 80 8 100690 94
2009-04-08 08:00:39 51°16.181 2°53.238 8.7 23 8 100700 94
2009-04-08 08:00:45 51°16.198 2°53.224 8.6 79 8 100700 94
2009-04-08 08:00:50 51°16.213 2°53.213 7.5 30 8 100700 94
2009-04-08 08:00:55 51°16.228 2°53.202 6.2 287 8 100700 94
2009-04-08 08:01:00 51°16.242 2°53.19 7.4 269 8 100700 94
2009-04-08 08:01:05 51°16.257 2°53.179 4.8 308 8 100700 94
2009-04-08 08:01:10 51°16.272 2°53.168 9.5 28 8 100700 94
2009-04-08 08:01:15 51°16.286 2°53.156 8.3 81 8 100700 94
2009-04-08 08:01:20 51°16.301 2°53.145 8 267 8 100700 94
2009-04-08 08:01:25 51°16.315 2°53.133 9.2 25 8 100700 94
2009-04-08 08:01:30 51°16.33 2°53.122 9.1 24 8 100700 94
2009-04-08 08:01:35 51°16.345 2°53.111 8.4 79 8 100700 94
2009-04-08 08:01:40 51°16.359 2°53.1 8.3 26 8 100700 94
2009-04-08 08:01:45 51°16.374 2°53.089 6.7 287 8 100700 94
2009-04-08 08:01:50 51°16.389 2°53.079 6.5 267 8 100700 94
2009-04-08 08:01:55 51°16.404 2°53.068 6.2 80 8 100700 94
2009-04-08 08:02:00 51°16.419 2°53.057 7.9 270 8 100710 94
2009-04-08 08:02:05 51°16.434 2°53.047 8.5 311 8 100710 94
2009-04-08 08:02:10 51°16.448 2°53.036 7.3 268 8 100700 94
2009-04-08 08:02:15 51°16.463 2°53.025 7.1 280 8 100700 94
2009-04-08 08:02:20 51°16.478 2°53.015 7.2 267 8 100710 94
2009-04-08 08:02:25 51°16.493 2°53.004 7.8 285 8 100710 94
2009-04-08 08:02:30 51°16.507 2°52.993 8 23 8 100700 94
2009-04-08 08:02:35 51°16.522 2°52.983 6.6 290 8 100700 94
2009-04-08 08:02:39 51°16.534 2°52.974 6.1 263 8 100710 94
2009-04-08 08:02:45 51°16.552 2°52.962 7.4 284 8 100710 94
2009-04-08 08:02:50 51°16.566 2°52.951 7.3 29 8 100700 94
2009-04-08 08:02:55 51°16.581 2°52.94 6.9 76 8 100700 94
2009-04-08 08:03:00 51°16.596 2°52.93 7.1 24 8.1 100700 94
2009-04-08 08:03:05 51°16.61 2°52.919 7.9 77 8.1 100700 94
2009-04-08 08:03:10 51°16.625 2°52.908 8.8 22 8 100690 94
2009-04-08 08:03:15 51°16.639 2°52.898 8.7 285 8 100690 94
2009-04-08 08:03:20 51°16.654 2°52.887 7.4 22 8 100700 94
2009-04-08 08:03:25 51°16.668 2°52.877 7.3 284 8 100700 94
2009-04-08 08:03:30 51°16.683 2°52.866 6.3 264 8 100690 94
2009-04-08 08:03:35 51°16.697 2°52.855 5.6 308 8 100690 94
2009-04-08 08:03:39 51°16.709 2°52.847 7.3 270 8 100690 94
2009-04-08 08:03:45 51°16.726 2°52.834 6.2 53 8 100690 94
2009-04-08 08:03:50 51°16.74 2°52.823 7.9 268 8 100700 94
2009-04-08 08:03:55 51°16.755 2°52.812 8 280 8 100700 94
2009-04-08 08:03:59 51°16.766 2°52.804 9.1 20 8.1 100700 94
2009-04-08 08:04:05 51°16.783 2°52.791 6.9 307 8.1 100700 94
2009-04-08 08:04:10 51°16.798 2°52.781 8.2 269 8.1 100690 94
2009-04-08 08:04:15 51°16.812 2°52.77 11.1 81 8.1 100690 94
2009-04-08 08:04:20 51°16.826 2°52.761 7.5 266 8.1 100700 94
2009-04-08 08:04:25 51°16.84 2°52.75 9.3 286 8.1 100700 94
2009-04-08 08:04:30 51°16.854 2°52.74 9.1 27 8.1 100690 94
2009-04-08 08:04:35 51°16.869 2°52.73 10.6 54 8.1 100690 94
2009-04-08 08:04:39 51°16.88 2°52.722 9.2 25 8 100690 94
2009-04-08 08:04:45 51°16.897 2°52.71 8.1 74 8 100690 94
2009-04-08 08:04:50 51°16.912 2°52.701 8.5 22 8.1 100690 94
2009-04-08 08:04:55 51°16.926 2°52.691 7.8 80 8.1 100690 94
2009-04-08 08:04:59 51°16.937 2°52.683 9 22 8.1 100700 94
2009-04-08 08:05:05 51°16.955 2°52.672 9.1 79 8.1 100700 94
2009-04-08 08:05:10 51°16.969 2°52.662 9.9 25 8.1 100690 94
2009-04-08 08:05:15 51°16.984 2°52.653 10.6 80 8.1 100690 94
2009-04-08 08:05:20 51°16.999 2°52.644 8.7 22 8.1 100680 94
2009-04-08 08:05:25 51°17.013 2°52.634 7.5 81 8.1 100680 94
2009-04-08 08:05:30 51°17.028 2°52.625 8.4 23 8.1 100690 94
2009-04-08 08:05:35 51°17.042 2°52.614 8 50 8.1 100690 94
2009-04-08 08:05:40 51°17.056 2°52.606 8.5 23 8.1 100690 94
2009-04-08 08:05:45 51°17.071 2°52.596 9.4 76 8.1 100690 94
2009-04-08 08:05:50 51°17.085 2°52.587 10.5 26 8.1 100690 94
2009-04-08 08:05:55 51°17.1 2°52.577 8.2 56 8.1 100690 94
2009-04-08 08:05:59 51°17.111 2°52.571 8.2 25 8.1 100690 94
2009-04-08 08:06:05 51°17.129 2°52.562 9.2 50 8.1 100690 94
2009-04-08 08:06:10 51°17.143 2°52.553 7.5 20 8 100700 94
2009-04-08 08:06:15 51°17.158 2°52.549 8.6 76 8 100700 94
2009-04-08 08:06:20 51°17.173 2°52.543 7.6 20 8.1 100690 93
2009-04-08 08:06:25 51°17.188 2°52.54 7.2 55 8.1 100690 93
2009-04-08 08:06:30 51°17.203 2°52.539 7 20 8.1 100690 93
2009-04-08 08:06:35 51°17.218 2°52.54 6.1 75 8.1 100690 93
2009-04-08 08:06:40 51°17.233 2°52.543 8.8 24 8.1 100690 93
2009-04-08 08:06:45 51°17.248 2°52.545 6 77 8.1 100690 93
2009-04-08 08:06:50 51°17.263 2°52.551 5.1 19 8.1 100690 93
2009-04-08 08:06:55 51°17.277 2°52.559 7.8 81 8.1 100690 93
2009-04-08 08:06:59 51°17.288 2°52.565 7.8 24 8.1 100690 93
2009-04-08 08:07:05 51°17.304 2°52.576 7.8 45 8.1 100690 93
2009-04-08 08:07:10 51°17.317 2°52.589 7.9 34 8.2 100690 94
2009-04-08 08:07:15 51°17.329 2°52.603 10.7 36 8.2 100690 94
2009-04-08 08:07:19 51°17.337 2°52.616 9.8 31 8.2 100690 94
2009-04-08 08:07:25 51°17.35 2°52.635 9.5 34 8.2 100690 94
2009-04-08 08:07:30 51°17.36 2°52.653 9.6 31 8.2 100690 94
2009-04-08 08:07:35 51°17.37 2°52.671 8.1 34 8.2 100690 94
2009-04-08 08:07:40 51°17.379 2°52.69 10.4 31 8.2 100670 94
2009-04-08 08:07:45 51°17.388 2°52.71 9.9 30 8.2 100670 94
2009-04-08 08:07:50 51°17.397 2°52.728 11.1 32 8.2 100670 94
2009-04-08 08:07:55 51°17.404 2°52.75 9.4 24 8.2 100670 94
2009-04-08 08:08:00 51°17.414 2°52.768 10.2 25 8.2 100670 94
2009-04-08 08:08:05 51°17.421 2°52.789 10.5 24 8.2 100670 94
2009-04-08 08:08:10 51°17.43 2°52.809 9.5 29 8.2 100670 93
2009-04-08 08:08:15 51°17.438 2°52.829 9.9 28 8.2 100670 93
2009-04-08 08:08:19 51°17.444 2°52.846 10.2 27 8.2 100660 94
2009-04-08 08:08:25 51°17.454 2°52.87 11.1 26 8.2 100660 94
2009-04-08 08:08:30 51°17.46 2°52.892 9.5 25 8.2 100670 93
2009-04-08 08:08:35 51°17.469 2°52.911 11.2 27 8.2 100670 93
2009-04-08 08:08:40 51°17.475 2°52.933 11.2 28 8.2 100670 93
2009-04-08 08:08:45 51°17.484 2°52.952 10 23 8.2 100670 93
2009-04-08 08:08:50 51°17.491 2°52.973 9.8 25 8.2 100670 94
2009-04-08 08:08:55 51°17.499 2°52.994 9.5 28 8.2 100670 94
2009-04-08 08:09:00 51°17.507 2°53.014 12.5 25 8.2 100670 94
2009-04-08 08:09:05 51°17.514 2°53.035 11.9 29 8.2 100670 94
2009-04-08 08:09:10 51°17.523 2°53.054 10.9 24 8.2 100670 94
2009-04-08 08:09:15 51°17.53 2°53.075 9.8 29 8.2 100670 94
2009-04-08 08:09:19 51°17.538 2°53.09 8.1 24 8.1 100670 93
2009-04-08 08:09:25 51°17.547 2°53.114 8.9 26 8.1 100670 93
2009-04-08 08:09:30 51°17.556 2°53.133 8.8 25 8.1 100670 94
2009-04-08 08:09:35 51°17.565 2°53.153 10 23 8.1 100670 94
2009-04-08 08:09:40 51°17.573 2°53.173 9.7 28 8.1 100670 94
2009-04-08 08:09:45 51°17.582 2°53.192 12.1 30 8.1 100670 94
2009-04-08 08:09:50 51°17.591 2°53.211 9.9 29 8.2 100670 94
2009-04-08 08:09:55 51°17.599 2°53.231 10.8 30 8.2 100670 94
2009-04-08 08:10:00 51°17.607 2°53.251 9.4 28 8.2 100670 94
2009-04-08 08:10:05 51°17.617 2°53.27 10 28 8.2 100670 94
2009-04-08 08:10:10 51°17.625 2°53.29 9.3 24 8.1 100670 94
2009-04-08 08:10:15 51°17.634 2°53.309 8.8 28 8.1 100670 94
2009-04-08 08:10:19 51°17.64 2°53.325 8.7 27 8.1 100670 94
2009-04-08 08:10:25 51°17.652 2°53.347 9.6 30 8.1 100670 94
2009-04-08 08:10:30 51°17.659 2°53.368 7.8 31 8.1 100670 94
2009-04-08 08:10:35 51°17.669 2°53.385 7.8 30 8.1 100670 94
2009-04-08 08:10:39 51°17.677 2°53.399 10.9 23 8.1 100670 94
2009-04-08 08:10:45 51°17.687 2°53.423 9.8 33 8.1 100670 94
2009-04-08 08:10:50 51°17.698 2°53.44 11.2 26 8.1 100680 94
2009-04-08 08:10:55 51°17.705 2°53.46 10 27 8.1 100680 94
2009-04-08 08:11:00 51°17.715 2°53.478 8.3 28 8.1 100680 94
2009-04-08 08:11:05 51°17.724 2°53.497 9.7 31 8.1 100680 94
2009-04-08 08:11:10 51°17.733 2°53.516 9.2 31 8.1 100670 94
2009-04-08 08:11:15 51°17.742 2°53.535 7.8 28 8.1 100670 94
2009-04-08 08:11:20 51°17.751 2°53.553 11 31 8.1 100670 94
2009-04-08 08:11:25 51°17.76 2°53.573 8.5 29 8.1 100670 94
2009-04-08 08:11:30 51°17.769 2°53.591 8.3 27 8.1 100670 94
2009-04-08 08:11:35 51°17.778 2°53.61 10.4 29 8.1 100670 94
2009-04-08 08:11:39 51°17.785 2°53.626 10 30 8.1 100670 94
2009-04-08 08:11:45 51°17.797 2°53.648 10.4 29 8.1 100670 94
2009-04-08 08:11:50 51°17.805 2°53.668 9.4 32 8.1 100670 94
2009-04-08 08:11:55 51°17.815 2°53.686 10.8 29 8.1 100670 94
2009-04-08 08:12:00 51°17.824 2°53.705 9.5 28 8.1 100670 94
2009-04-08 08:12:05 51°17.833 2°53.725 8.1 27 8.1 100670 94
2009-04-08 08:12:10 51°17.842 2°53.743 8.7 26 8.1 100670 94
2009-04-08 08:12:15 51°17.851 2°53.763 10.3 27 8.1 100670 94
2009-04-08 08:12:20 51°17.86 2°53.782 11.4 28 8.1 100680 94
2009-04-08 08:12:25 51°17.868 2°53.802 11.1 31 8.1 100680 94
2009-04-08 08:12:30 51°17.878 2°53.821 11.4 31 8.1 100680 94
2009-04-08 08:12:35 51°17.886 2°53.841 10.6 30 8.1 100680 94
2009-04-08 08:12:39 51°17.893 2°53.856 9.4 31 8.1 100670 94
2009-04-08 08:12:45 51°17.904 2°53.879 11.5 28 8.1 100670 94
2009-04-08 08:12:50 51°17.912 2°53.899 9.8 29 8.1 100670 94
2009-04-08 08:12:55 51°17.921 2°53.917 10.3 30 8.1 100670 94
2009-04-08 08:12:59 51°17.926 2°53.934 7.2 29 8.1 100670 94
2009-04-08 08:13:05 51°17.939 2°53.955 9.9 26 8.1 100670 94
2009-04-08 08:13:10 51°17.947 2°53.975 10.4 29 8.1 100670 94
2009-04-08 08:13:15 51°17.956 2°53.994 8.1 28 8.1 100670 94
2009-04-08 08:13:20 51°17.965 2°54.013 10.4 28 8.1 100670 94
2009-04-08 08:13:25 51°17.975 2°54.032 10.7 28 8.1 100670 94
2009-04-08 08:13:30 51°17.983 2°54.051 9.8 30 8.1 100680 94
2009-04-08 08:13:35 51°17.993 2°54.07 12 30 8.1 100680 94
2009-04-08 08:13:39 51°18 2°54.086 10.1 32 8.1 100680 94
2009-04-08 08:13:45 51°18.01 2°54.109 7.6 30 8.1 100680 94
2009-04-08 08:13:50 51°18.02 2°54.128 9.9 23 8.1 100670 94
2009-04-08 08:13:55 51°18.028 2°54.148 9.5 32 8.1 100670 94
2009-04-08 08:13:59 51°18.036 2°54.163 8.4 21 8.1 100680 94
2009-04-08 08:14:05 51°18.046 2°54.187 10.2 26 8.1 100680 94
2009-04-08 08:14:10 51°18.056 2°54.206 10.9 32 8.1 100670 94
2009-04-08 08:14:15 51°18.064 2°54.226 9.4 31 8.1 100670 94
2009-04-08 08:14:20 51°18.073 2°54.245 9.4 24 8.1 100680 94
2009-04-08 08:14:25 51°18.081 2°54.265 10.5 26 8.1 100680 94
2009-04-08 08:14:30 51°18.091 2°54.284 10.7 27 8.1 100670 94
2009-04-08 08:14:35 51°18.099 2°54.304 10.8 32 8.1 100670 94
2009-04-08 08:14:40 51°18.108 2°54.324 10.3 27 8.1 100670 94
2009-04-08 08:14:45 51°18.117 2°54.343 10.8 33 8.1 100670 94
2009-04-08 08:14:50 51°18.126 2°54.362 9.8 29 8.1 100670 94
2009-04-08 08:14:55 51°18.134 2°54.381 10.9 31 8.1 100670 94
2009-04-08 08:14:59 51°18.141 2°54.396 10.5 29 8.1 100670 94
2009-04-08 08:15:05 51°18.151 2°54.42 11.5 29 8.1 100670 94
2009-04-08 08:15:10 51°18.16 2°54.439 11.4 28 8.1 100680 94
2009-04-08 08:15:15 51°18.168 2°54.46 9.4 29 8.1 100680 94
2009-04-08 08:15:20 51°18.178 2°54.479 8.8 28 8.1 100670 94
2009-04-08 08:15:25 51°18.186 2°54.499 8.6 30 8.1 100670 94
2009-04-08 08:15:30 51°18.195 2°54.519 8.2 30 8.1 100670 94
2009-04-08 08:15:35 51°18.204 2°54.538 7.6 25 8.1 100670 94
2009-04-08 08:15:40 51°18.213 2°54.558 8.4 31 8.1 100670 94
2009-04-08 08:15:45 51°18.222 2°54.577 10.2 28 8.1 100670 94
2009-04-08 08:15:50 51°18.231 2°54.597 9.1 24 8.1 100680 94
2009-04-08 08:15:55 51°18.24 2°54.617 10.6 25 8.1 100680 94
2009-04-08 08:15:59 51°18.247 2°54.632 9.3 31 8.1 100680 94
2009-04-08 08:16:05 51°18.257 2°54.656 7.8 34 8.1 100680 94
2009-04-08 08:16:10 51°18.267 2°54.674 11.6 31 8.1 100680 94
2009-04-08 08:16:15 51°18.275 2°54.694 9.7 30 8.1 100680 94
2009-04-08 08:16:19 51°18.283 2°54.708 9 27 8.1 100680 94
2009-04-08 08:16:25 51°18.294 2°54.732 8.8 30 8.1 100680 94
2009-04-08 08:16:30 51°18.304 2°54.75 9.8 26 8.1 100680 94
2009-04-08 08:16:35 51°18.313 2°54.77 11.5 33 8.1 100680 94
2009-04-08 08:16:40 51°18.322 2°54.79 8.9 30 8.1 100680 94
2009-04-08 08:16:45 51°18.331 2°54.81 9.7 31 8.1 100680 94
2009-04-08 08:16:50 51°18.341 2°54.829 8.2 29 8.1 100670 94
2009-04-08 08:16:55 51°18.35 2°54.848 9.7 30 8.1 100670 94
2009-04-08 08:17:00 51°18.359 2°54.867 10.3 30 8.1 100680 94
2009-04-08 08:17:05 51°18.368 2°54.886 10.5 27 8.1 100680 94
2009-04-08 08:17:10 51°18.377 2°54.906 8.6 30 8.1 100680 94
2009-04-08 08:17:15 51°18.387 2°54.924 10.3 32 8.1 100680 94
2009-04-08 08:17:19 51°18.393 2°54.941 8.2 31 8.1 100680 94
2009-04-08 08:17:25 51°18.404 2°54.962 9.6 30 8.1 100680 94
2009-04-08 08:17:30 51°18.413 2°54.981 10.5 30 8.1 100680 94
2009-04-08 08:17:35 51°18.423 2°54.999 11.1 31 8.1 100680 94
2009-04-08 08:17:40 51°18.431 2°55.019 9.6 33 8.1 100680 94
2009-04-08 08:17:45 51°18.44 2°55.037 9.1 28 8.1 100680 94
2009-04-08 08:17:50 51°18.449 2°55.055 9.7 30 8.1 100680 94
2009-04-08 08:17:55 51°18.458 2°55.074 8.4 26 8.1 100680 94
2009-04-08 08:18:00 51°18.467 2°55.093 8.5 30 8.1 100680 94
2009-04-08 08:18:05 51°18.476 2°55.112 8.1 31 8.1 100680 94
2009-04-08 08:18:10 51°18.485 2°55.131 8 25 8.1 100680 94
2009-04-08 08:18:15 51°18.495 2°55.149 8.2 33 8.1 100680 94
2009-04-08 08:18:19 51°18.502 2°55.164 9.5 29 8.1 100680 94
2009-04-08 08:18:25 51°18.512 2°55.187 8.1 32 8.1 100680 94
2009-04-08 08:18:30 51°18.522 2°55.205 7.4 30 8.1 100680 94
2009-04-08 08:18:35 51°18.529 2°55.225 9 26 8.1 100680 94
2009-04-08 08:18:40 51°18.538 2°55.244 9.5 28 8.1 100690 94
2009-04-08 08:18:45 51°18.547 2°55.263 9.9 30 8.1 100690 94
2009-04-08 08:18:50 51°18.556 2°55.283 11 29 8.1 100680 94
2009-04-08 08:18:55 51°18.564 2°55.302 9 31 8.1 100680 94
2009-04-08 08:19:00 51°18.574 2°55.321 7.6 26 8.1 100680 94
2009-04-08 08:19:05 51°18.582 2°55.34 10.5 28 8.1 100680 94
2009-04-08 08:19:10 51°18.591 2°55.359 12.2 32 8.1 100690 94
2009-04-08 08:19:15 51°18.6 2°55.377 12.9 35 8.1 100690 94
2009-04-08 08:19:19 51°18.606 2°55.394 10.5 36 8.1 100680 94
2009-04-08 08:19:25 51°18.618 2°55.416 12.7 37 8.1 100680 94
2009-04-08 08:19:30 51°18.626 2°55.435 12.6 35 8.1 100670 94
2009-04-08 08:19:35 51°18.634 2°55.456 9.6 27 8.1 100670 94
2009-04-08 08:19:40 51°18.644 2°55.474 9.8 29 8.1 100680 94
2009-04-08 08:19:45 51°18.651 2°55.494 8.4 28 8.1 100680 94
2009-04-08 08:19:50 51°18.661 2°55.512 10.1 28 8.1 100670 94
2009-04-08 08:19:55 51°18.669 2°55.532 11.9 30 8.1 100670 94
2009-04-08 08:20:00 51°18.678 2°55.551 9.2 31 8.1 100660 94
2009-04-08 08:20:05 51°18.687 2°55.57 12.6 33 8.1 100660 94
2009-04-08 08:20:10 51°18.695 2°55.589 11.2 35 8.2 100680 94
2009-04-08 08:20:15 51°18.704 2°55.608 9.3 31 8.2 100680 94
2009-04-08 08:20:19 51°18.711 2°55.624 9.4 35 8.2 100680 94
2009-04-08 08:20:25 51°18.722 2°55.647 11 34 8.2 100680 94
2009-04-08 08:20:30 51°18.731 2°55.666 10 30 8.2 100680 94
2009-04-08 08:20:35 51°18.739 2°55.686 8 30 8.2 100680 94
2009-04-08 08:20:39 51°18.747 2°55.7 9.1 30 8.2 100680 94
2009-04-08 08:20:45 51°18.757 2°55.724 9.1 32 8.2 100680 94
2009-04-08 08:20:50 51°18.767 2°55.742 8.8 30 8.1 100680 94
2009-04-08 08:20:55 51°18.775 2°55.761 8.4 -999 8.1 100680 94
2009-04-08 08:21:00 51°18.784 2°55.78 8.7 33 8.1 100680 94
2009-04-08 08:21:05 51°18.792 2°55.799 10.1 32 8.1 100680 94
2009-04-08 08:21:10 51°18.801 2°55.818 8 29 8.2 100680 94
2009-04-08 08:21:15 51°18.81 2°55.837 8.2 32 8.2 100680 94
2009-04-08 08:21:19 51°18.817 2°55.853 8.9 21 8.2 100680 94
2009-04-08 08:21:25 51°18.828 2°55.876 9.1 27 8.2 100680 94
2009-04-08 08:21:30 51°18.837 2°55.896 10.8 28 8.2 100690 94
2009-04-08 08:21:35 51°18.845 2°55.916 10 30 8.2 100690 94
2009-04-08 08:21:39 51°18.853 2°55.932 11.5 33 8.2 100690 94
2009-04-08 08:21:45 51°18.863 2°55.955 9.5 33 8.2 100690 94
2009-04-08 08:21:50 51°18.872 2°55.975 10.1 29 8.2 100680 94
2009-04-08 08:21:55 51°18.88 2°55.995 11.2 26 8.2 100680 94
2009-04-08 08:22:00 51°18.889 2°56.014 10.7 32 8.2 100670 94
2009-04-08 08:22:05 51°18.898 2°56.033 10.1 31 8.2 100670 94
2009-04-08 08:22:10 51°18.906 2°56.053 9.1 29 8.1 100680 94
2009-04-08 08:22:15 51°18.915 2°56.072 10.9 26 8.1 100680 94
2009-04-08 08:22:20 51°18.923 2°56.091 14 29 8.2 100670 94
2009-04-08 08:22:25 51°18.932 2°56.11 12.9 31 8.2 100670 94
2009-04-08 08:22:30 51°18.941 2°56.129 12.4 30 8.2 100680 94
2009-04-08 08:22:35 51°18.948 2°56.15 9.4 29 8.2 100680 94
2009-04-08 08:22:39 51°18.955 2°56.164 11.5 29 8.2 100670 94
2009-04-08 08:22:45 51°18.966 2°56.187 9.8 31 8.2 100670 94
2009-04-08 08:22:50 51°18.974 2°56.206 10.1 32 8.2 100670 94
2009-04-08 08:22:55 51°18.984 2°56.225 8.7 33 8.2 100670 94
2009-04-08 08:23:00 51°18.993 2°56.244 10.8 33 8.2 100670 94
2009-04-08 08:23:05 51°19.001 2°56.264 9.4 27 8.2 100670 94
2009-04-08 08:23:10 51°19.011 2°56.282 9 30 8.2 100670 94
2009-04-08 08:23:15 51°19.018 2°56.302 9.7 25 8.2 100670 94
2009-04-08 08:23:20 51°19.028 2°56.321 10.5 29 8.2 100670 94
2009-04-08 08:23:25 51°19.036 2°56.34 8.9 30 8.2 100670 94
2009-04-08 08:23:30 51°19.045 2°56.359 10.3 32 8.2 100670 94
2009-04-08 08:23:35 51°19.054 2°56.377 10.5 32 8.2 100670 94
2009-04-08 08:23:39 51°19.06 2°56.393 9.1 31 8.2 100670 94
2009-04-08 08:23:45 51°19.071 2°56.415 9.6 28 8.2 100670 94
2009-04-08 08:23:50 51°19.08 2°56.435 10.2 26 8.2 100670 94
2009-04-08 08:23:55 51°19.089 2°56.454 9.6 37 8.2 100670 94
2009-04-08 08:23:59 51°19.096 2°56.469 9.8 24 8.2 100670 94
2009-04-08 08:24:05 51°19.105 2°56.493 8.8 34 8.2 100670 94
2009-04-08 08:24:10 51°19.116 2°56.51 11.2 28 8.2 100670 94
2009-04-08 08:24:15 51°19.122 2°56.531 9.9 28 8.2 100670 94
2009-04-08 08:24:20 51°19.132 2°56.548 7.7 23 8.2 100680 94
2009-04-08 08:24:25 51°19.14 2°56.568 11 23 8.2 100680 94
2009-04-08 08:24:30 51°19.148 2°56.587 10.3 25 8.2 100680 94
2009-04-08 08:24:35 51°19.158 2°56.604 10.2 26 8.2 100680 94
2009-04-08 08:24:40 51°19.164 2°56.626 10.5 32 8.2 100670 94
2009-04-08 08:24:45 51°19.174 2°56.642 12.9 28 8.2 100670 94
2009-04-08 08:24:50 51°19.18 2°56.664 9.9 30 8.2 100670 94
2009-04-08 08:24:55 51°19.19 2°56.681 12.5 27 8.2 100670 94
2009-04-08 08:24:59 51°19.197 2°56.697 10.7 34 8.2 100670 94
2009-04-08 08:25:05 51°19.207 2°56.719 11 29 8.2 100670 94
2009-04-08 08:25:10 51°19.216 2°56.739 10.5 32 8.2 100670 94
2009-04-08 08:25:15 51°19.225 2°56.758 10.3 27 8.2 100670 94
2009-04-08 08:25:20 51°19.233 2°56.778 9.4 32 8.2 100670 94
2009-04-08 08:25:25 51°19.242 2°56.797 8.4 25 8.2 100670 94
2009-04-08 08:25:30 51°19.251 2°56.817 8.3 28 8.2 100670 94
2009-04-08 08:25:35 51°19.26 2°56.835 10.1 29 8.2 100670 94
2009-04-08 08:25:40 51°19.269 2°56.855 8.1 29 8.2 100670 94
2009-04-08 08:25:45 51°19.278 2°56.874 9.4 29 8.2 100670 94
2009-04-08 08:25:50 51°19.288 2°56.893 9.2 28 8.2 100670 94
2009-04-08 08:25:55 51°19.297 2°56.912 12.5 29 8.2 100670 94
2009-04-08 08:25:59 51°19.305 2°56.927 11.9 34 8.2 100680 94
2009-04-08 08:26:05 51°19.315 2°56.951 9.4 33 8.2 100680 94
2009-04-08 08:26:10 51°19.326 2°56.968 8.9 28 8.2 100680 94
2009-04-08 08:26:15 51°19.334 2°56.988 9.4 27 8.2 100680 94
2009-04-08 08:26:20 51°19.342 2°57.007 9 33 8.2 100680 94
2009-04-08 08:26:25 51°19.353 2°57.023 12.5 31 8.2 100680 94
2009-04-08 08:26:30 51°19.36 2°57.044 9 34 8.2 100680 94
2009-04-08 08:26:35 51°19.371 2°57.06 10 31 8.2 100680 94
2009-04-08 08:26:40 51°19.379 2°57.081 8 33 8.2 100670 94
2009-04-08 08:26:45 51°19.389 2°57.098 9.9 32 8.2 100670 94
2009-04-08 08:26:50 51°19.397 2°57.116 8.8 29 8.2 100690 94
2009-04-08 08:26:55 51°19.406 2°57.135 7.1 27 8.2 100690 94
2009-04-08 08:26:59 51°19.415 2°57.147 11.3 28 8.2 100690 94
2009-04-08 08:27:05 51°19.424 2°57.172 10.7 32 8.2 100690 94
2009-04-08 08:27:10 51°19.434 2°57.188 11 33 8.2 100690 94
2009-04-08 08:27:15 51°19.442 2°57.209 8.3 33 8.2 100690 94
2009-04-08 08:27:19 51°19.449 2°57.223 9.7 30 8.2 100690 94
2009-04-08 08:27:25 51°19.46 2°57.245 11.1 32 8.2 100690 94
2009-04-08 08:27:30 51°19.468 2°57.265 7.8 31 8.2 100680 94
2009-04-08 08:27:35 51°19.478 2°57.282 8.7 25 8.2 100680 94
2009-04-08 08:27:40 51°19.486 2°57.302 9 34 8.2 100680 94
2009-04-08 08:27:45 51°19.495 2°57.321 8.3 26 8.2 100680 94
2009-04-08 08:27:50 51°19.504 2°57.339 11.3 33 8.2 100680 94
2009-04-08 08:27:55 51°19.511 2°57.36 9.1 39 8.2 100680 94
2009-04-08 08:28:00 51°19.521 2°57.377 8 26 8.2 100690 94
2009-04-08 08:28:05 51°19.53 2°57.396 9 28 8.2 100690 94
2009-04-08 08:28:10 51°19.538 2°57.416 7.9 30 8.2 100680 94
2009-04-08 08:28:15 51°19.549 2°57.432 9.6 28 8.2 100680 94
2009-04-08 08:28:19 51°19.555 2°57.449 10.1 26 8.2 100680 94
2009-04-08 08:28:25 51°19.564 2°57.472 11.8 26 8.2 100680 94
2009-04-08 08:28:30 51°19.573 2°57.491 12.5 28 8.2 100680 94
2009-04-08 08:28:35 51°19.579 2°57.512 10.5 26 8.2 100680 94
2009-04-08 08:28:40 51°19.587 2°57.532 11.1 24 8.2 100680 94
2009-04-08 08:28:45 51°19.593 2°57.553 11.9 24 8.2 100680 94
2009-04-08 08:28:50 51°19.601 2°57.573 13.3 22 8.2 100680 94
2009-04-08 08:28:55 51°19.606 2°57.596 11.4 24 8.2 100680 94
2009-04-08 08:29:00 51°19.614 2°57.616 12.7 24 8.2 100670 94
2009-04-08 08:29:05 51°19.619 2°57.638 11.5 21 8.2 100670 94
2009-04-08 08:29:10 51°19.625 2°57.66 11.9 23 8.2 100670 94
2009-04-08 08:29:15 51°19.632 2°57.681 12.4 26 8.2 100670 94
2009-04-08 08:29:19 51°19.636 2°57.698 10.5 28 8.2 100670 94
2009-04-08 08:29:25 51°19.643 2°57.725 10.5 21 8.2 100670 94
2009-04-08 08:29:30 51°19.65 2°57.746 10.9 19 8.2 100670 94
2009-04-08 08:29:35 51°19.655 2°57.768 11.2 18 8.2 100670 94
2009-04-08 08:29:39 51°19.659 2°57.785 12.6 21 8.2 100680 94
2009-04-08 08:29:45 51°19.668 2°57.811 11.9 22 8.2 100680 94
2009-04-08 08:29:50 51°19.673 2°57.833 12.5 24 8.2 100670 94
2009-04-08 08:29:55 51°19.679 2°57.854 11.4 24 8.2 100670 94
2009-04-08 08:30:00 51°19.686 2°57.876 12 21 8.2 100680 94
2009-04-08 08:30:05 51°19.692 2°57.897 10 23 8.2 100680 94
2009-04-08 08:30:10 51°19.698 2°57.919 11.6 18 8.2 100670 94
2009-04-08 08:30:15 51°19.704 2°57.941 12.1 23 8.2 100670 94
2009-04-08 08:30:19 51°19.709 2°57.958 14.5 24 8.2 100670 94
2009-04-08 08:30:25 51°19.716 2°57.985 12.7 22 8.2 100670 94
2009-04-08 08:30:30 51°19.722 2°58.006 13.8 22 8.2 100670 94
2009-04-08 08:30:35 51°19.727 2°58.028 9.7 24 8.2 100670 94
2009-04-08 08:30:39 51°19.733 2°58.046 11.9 22 8.2 100670 94
2009-04-08 08:30:45 51°19.74 2°58.072 10.4 21 8.2 100670 94
2009-04-08 08:30:50 51°19.745 2°58.094 12.4 18 8.2 100660 94
2009-04-08 08:30:55 51°19.752 2°58.116 13.8 24 8.2 100660 94
2009-04-08 08:31:00 51°19.756 2°58.139 10.9 23 8.2 100670 94
2009-04-08 08:31:05 51°19.763 2°58.161 13.1 19 8.2 100670 94
2009-04-08 08:31:10 51°19.769 2°58.182 13.4 21 8.2 100680 94
2009-04-08 08:31:15 51°19.774 2°58.205 12.1 25 8.2 100680 94
2009-04-08 08:31:20 51°19.781 2°58.227 10.3 23 8.2 100680 94
2009-04-08 08:31:25 51°19.787 2°58.249 10.8 21 8.2 100680 94
2009-04-08 08:31:30 51°19.793 2°58.271 9.5 26 8.2 100670 94
2009-04-08 08:31:35 51°19.799 2°58.294 11.3 27 8.2 100670 94
2009-04-08 08:31:39 51°19.806 2°58.311 13.5 26 8.2 100670 94
2009-04-08 08:31:45 51°19.812 2°58.338 11.7 26 8.2 100670 94
2009-04-08 08:31:50 51°19.819 2°58.36 12.7 25 8.2 100670 94
2009-04-08 08:31:55 51°19.826 2°58.383 10.8 26 8.2 100670 94
2009-04-08 08:31:59 51°19.831 2°58.399 13.4 21 8.2 100670 94
2009-04-08 08:32:05 51°19.837 2°58.427 12.9 27 8.2 100670 94
2009-04-08 08:32:10 51°19.846 2°58.448 12.4 23 8.2 100670 94
2009-04-08 08:32:15 51°19.852 2°58.47 12.1 22 8.2 100670 94
2009-04-08 08:32:20 51°19.857 2°58.492 12.8 23 8.2 100680 94
2009-04-08 08:32:25 51°19.864 2°58.514 11.2 25 8.2 100680 94
2009-04-08 08:32:30 51°19.872 2°58.534 13 27 8.2 100670 94
2009-04-08 08:32:35 51°19.876 2°58.556 9 19 8.2 100670 94
2009-04-08 08:32:39 51°19.881 2°58.574 11 24 8.2 100670 94
2009-04-08 08:32:45 51°19.89 2°58.599 11.5 23 8.2 100670 94
2009-04-08 08:32:50 51°19.895 2°58.621 10 26 8.2 100670 94
2009-04-08 08:32:55 51°19.903 2°58.642 11.4 24 8.2 100670 94
2009-04-08 08:32:59 51°19.907 2°58.66 10.1 20 8.2 100670 94
2009-04-08 08:33:05 51°19.915 2°58.686 12.2 23 8.2 100670 94
2009-04-08 08:33:10 51°19.921 2°58.708 11.2 23 8.2 100680 94
2009-04-08 08:33:15 51°19.927 2°58.73 10 23 8.2 100680 94
2009-04-08 08:33:20 51°19.933 2°58.753 10 22 8.2 100670 94
2009-04-08 08:33:25 51°19.94 2°58.774 11.7 21 8.2 100670 94
2009-04-08 08:33:30 51°19.945 2°58.797 10.9 23 8.2 100670 94
2009-04-08 08:33:35 51°19.953 2°58.818 11.4 24 8.2 100670 94
2009-04-08 08:33:39 51°19.957 2°58.837 11.6 22 8.2 100680 94
2009-04-08 08:33:45 51°19.966 2°58.863 13.3 22 8.2 100680 94
2009-04-08 08:33:50 51°19.972 2°58.886 13.7 18 8.2 100670 94
2009-04-08 08:33:55 51°19.978 2°58.908 10.3 23 8.2 100670 94
2009-04-08 08:33:59 51°19.983 2°58.926 11.2 22 8.2 100680 94
2009-04-08 08:34:05 51°19.991 2°58.952 11.6 21 8.2 100680 94
2009-04-08 08:34:10 51°19.998 2°58.975 12.7 23 8.2 100680 94
2009-04-08 08:34:15 51°20.004 2°58.997 11.4 22 8.2 100680 94
2009-04-08 08:34:20 51°20.01 2°59.019 12.4 24 8.2 100680 94
2009-04-08 08:34:25 51°20.016 2°59.041 11.1 26 8.2 100680 94
2009-04-08 08:34:30 51°20.023 2°59.063 13.1 24 8.2 100680 94
2009-04-08 08:34:35 51°20.029 2°59.085 11.6 23 8.2 100680 94
2009-04-08 08:34:40 51°20.035 2°59.108 10.7 25 8.2 100670 94
2009-04-08 08:34:45 51°20.042 2°59.129 10 25 8.2 100670 94
2009-04-08 08:34:50 51°20.048 2°59.151 13.3 23 8.2 100680 94
2009-04-08 08:34:55 51°20.053 2°59.174 9.1 24 8.2 100680 94
2009-04-08 08:34:59 51°20.059 2°59.19 12.4 20 8.2 100680 94
2009-04-08 08:35:05 51°20.067 2°59.217 11 25 8.2 100680 94
2009-04-08 08:35:10 51°20.073 2°59.238 11.2 19 8.2 100680 94
2009-04-08 08:35:15 51°20.08 2°59.26 12.3 25 8.2 100680 94
2009-04-08 08:35:19 51°20.085 2°59.278 10.3 25 8.2 100670 94
2009-04-08 08:35:25 51°20.094 2°59.304 10.9 20 8.2 100670 94
2009-04-08 08:35:30 51°20.099 2°59.327 11.8 23 8.2 100680 94
2009-04-08 08:35:35 51°20.106 2°59.349 10.2 23 8.2 100680 94
2009-04-08 08:35:40 51°20.113 2°59.371 10.5 25 8.2 100690 94
2009-04-08 08:35:45 51°20.119 2°59.393 10.9 24 8.2 100690 94
2009-04-08 08:35:50 51°20.126 2°59.415 11.9 26 8.2 100690 94
2009-04-08 08:35:55 51°20.132 2°59.437 10.7 26 8.2 100690 94
2009-04-08 08:36:00 51°20.139 2°59.459 11.4 24 8.2 100680 94
2009-04-08 08:36:05 51°20.146 2°59.481 13 26 8.2 100680 94
2009-04-08 08:36:10 51°20.151 2°59.504 12.6 26 8.2 100680 94
2009-04-08 08:36:15 51°20.159 2°59.526 11.6 22 8.2 100680 94
2009-04-08 08:36:19 51°20.163 2°59.544 11.3 21 8.2 100680 94
2009-04-08 08:36:25 51°20.171 2°59.571 11.5 23 8.2 100680 94
2009-04-08 08:36:30 51°20.178 2°59.593 10.8 21 8.2 100680 94
2009-04-08 08:36:35 51°20.184 2°59.615 9.1 24 8.2 100680 94
2009-04-08 08:36:40 51°20.19 2°59.638 10.9 24 8.2 100680 94
2009-04-08 08:36:45 51°20.197 2°59.659 11.3 25 8.2 100680 94
2009-04-08 08:36:50 51°20.202 2°59.682 10.4 28 8.2 100680 94
2009-04-08 08:36:55 51°20.21 2°59.703 11.9 24 8.2 100680 94
2009-04-08 08:37:00 51°20.217 2°59.725 12.5 23 8.2 100690 94
2009-04-08 08:37:05 51°20.222 2°59.748 10.3 26 8.2 100690 94
2009-04-08 08:37:10 51°20.229 2°59.769 10.6 19 8.2 100690 94
2009-04-08 08:37:15 51°20.236 2°59.791 11.9 23 8.2 100690 94
2009-04-08 08:37:19 51°20.24 2°59.811 9.7 24 8.2 100680 94
2009-04-08 08:37:25 51°20.25 2°59.836 11.2 20 8.2 100680 94
2009-04-08 08:37:30 51°20.254 2°59.86 8.8 19 8.2 100680 94
2009-04-08 08:37:35 51°20.262 2°59.882 11.5 22 8.2 100680 94
2009-04-08 08:37:40 51°20.268 2°59.905 8.7 26 8.2 100680 94
2009-04-08 08:37:45 51°20.274 2°59.928 11.9 23 8.2 100680 94
2009-04-08 08:37:50 51°20.28 2°59.951 11.6 21 8.2 100680 94
2009-04-08 08:37:55 51°20.286 2°59.974 11.7 24 8.2 100680 94
2009-04-08 08:38:00 51°20.291 2°59.997 9.6 23 8.2 100690 95
2009-04-08 08:38:05 51°20.298 3°0.019 11 25 8.2 100690 95
2009-04-08 08:38:10 51°20.303 3°0.043 11.4 27 8.2 100680 94
2009-04-08 08:38:15 51°20.31 3°0.065 10.6 28 8.2 100680 94
2009-04-08 08:38:19 51°20.315 3°0.083 10.3 22 8.2 100680 94
2009-04-08 08:38:25 51°20.321 3°0.111 8.4 23 8.2 100680 94
2009-04-08 08:38:30 51°20.328 3°0.133 9.7 18 8.2 100690 95
2009-04-08 08:38:35 51°20.333 3°0.156 11.4 27 8.2 100690 95
2009-04-08 08:38:39 51°20.338 3°0.173 11.9 22 8.2 100690 94
2009-04-08 08:38:45 51°20.345 3°0.201 12.1 27 8.2 100690 94
2009-04-08 08:38:50 51°20.351 3°0.223 13.4 27 8.2 100690 95
2009-04-08 08:38:55 51°20.356 3°0.247 11.9 29 8.2 100690 95
2009-04-08 08:39:00 51°20.363 3°0.269 11.6 24 8.2 100690 94
2009-04-08 08:39:05 51°20.369 3°0.293 9.7 27 8.2 100690 94
2009-04-08 08:39:10 51°20.375 3°0.316 9.5 22 8.2 100690 95
2009-04-08 08:39:15 51°20.381 3°0.339 10.9 22 8.2 100690 95
2009-04-08 08:39:20 51°20.387 3°0.363 9.4 19 8.2 100680 95
2009-04-08 08:39:25 51°20.393 3°0.386 11.1 23 8.2 100680 95
2009-04-08 08:39:30 51°20.4 3°0.409 12.2 24 8.2 100680 94
2009-04-08 08:39:35 51°20.405 3°0.432 11.4 23 8.2 100680 94
2009-04-08 08:39:39 51°20.411 3°0.45 11.2 23 8.2 100690 94
2009-04-08 08:39:45 51°20.418 3°0.478 9 20 8.2 100690 94
2009-04-08 08:39:50 51°20.424 3°0.501 9.8 23 8.2 100690 95
2009-04-08 08:39:55 51°20.431 3°0.524 11.8 25 8.2 100690 95
2009-04-08 08:40:00 51°20.436 3°0.548 11.4 25 8.2 100690 95
2009-04-08 08:40:05 51°20.444 3°0.57 9.6 23 8.2 100690 95
2009-04-08 08:40:10 51°20.45 3°0.593 8.8 23 8.2 100690 95
2009-04-08 08:40:15 51°20.456 3°0.616 7.8 24 8.2 100690 95
2009-04-08 08:40:20 51°20.463 3°0.639 9.7 17 8.2 100690 95
2009-04-08 08:40:25 51°20.469 3°0.662 13.3 26 8.2 100690 95
2009-04-08 08:40:30 51°20.475 3°0.686 11.3 25 8.2 100690 95
2009-04-08 08:40:35 51°20.482 3°0.708 11.2 22 8.2 100690 95
2009-04-08 08:40:39 51°20.486 3°0.727 9.6 22 8.2 100690 95
2009-04-08 08:40:45 51°20.494 3°0.755 10.5 24 8.2 100690 95
2009-04-08 08:40:50 51°20.501 3°0.778 11.1 21 8.2 100680 95
2009-04-08 08:40:55 51°20.506 3°0.802 9.5 21 8.2 100680 95
2009-04-08 08:40:59 51°20.512 3°0.821 13.2 20 8.2 100690 95
2009-04-08 08:41:05 51°20.52 3°0.848 10.3 25 8.2 100690 95
2009-04-08 08:41:10 51°20.526 3°0.872 9.9 26 8.2 100680 95
2009-04-08 08:41:15 51°20.532 3°0.895 10.4 27 8.2 100680 95
2009-04-08 08:41:20 51°20.539 3°0.919 11 26 8.2 100690 95
2009-04-08 08:41:25 51°20.545 3°0.942 10.9 27 8.2 100690 95
2009-04-08 08:41:30 51°20.552 3°0.965 9.8 22 8.2 100690 95
2009-04-08 08:41:35 51°20.559 3°0.989 10.6 24 8.2 100690 95
2009-04-08 08:41:39 51°20.563 3°1.008 10.6 25 8.2 100690 95
2009-04-08 08:41:45 51°20.571 3°1.036 10.9 21 8.2 100690 95
2009-04-08 08:41:50 51°20.577 3°1.059 9.2 21 8.2 100680 95
2009-04-08 08:41:55 51°20.585 3°1.082 12.7 20 8.2 100680 95
2009-04-08 08:41:59 51°20.589 3°1.1 9.5 20 8.2 100690 95
2009-04-08 08:42:05 51°20.596 3°1.128 11.2 22 8.2 100690 95
2009-04-08 08:42:10 51°20.604 3°1.15 11.5 21 8.2 100680 95
2009-04-08 08:42:15 51°20.609 3°1.174 9.8 21 8.2 100680 95
2009-04-08 08:42:20 51°20.615 3°1.196 13 23 8.2 100680 95
2009-04-08 08:42:25 51°20.622 3°1.22 12.1 20 8.2 100680 95
2009-04-08 08:42:30 51°20.628 3°1.242 10.8 23 8.2 100680 95
2009-04-08 08:42:35 51°20.633 3°1.265 10.8 18 8.2 100680 95
2009-04-08 08:42:40 51°20.64 3°1.288 12.9 23 8.2 100680 95
2009-04-08 08:42:45 51°20.647 3°1.311 10.2 26 8.2 100680 95
2009-04-08 08:42:50 51°20.652 3°1.334 8 26 8.2 100680 95
2009-04-08 08:42:55 51°20.659 3°1.357 12.1 22 8.2 100680 95
2009-04-08 08:42:59 51°20.664 3°1.375 12.5 21 8.2 100680 95
2009-04-08 08:43:05 51°20.671 3°1.404 10.7 22 8.2 100680 95
2009-04-08 08:43:10 51°20.679 3°1.426 13.7 22 8.2 100680 95
2009-04-08 08:43:15 51°20.684 3°1.449 9.8 25 8.2 100680 95
2009-04-08 08:43:20 51°20.689 3°1.473 9.7 24 8.2 100680 95
2009-04-08 08:43:25 51°20.697 3°1.495 10.5 19 8.2 100680 95
2009-04-08 08:43:30 51°20.703 3°1.518 12.2 24 8.2 100680 95
2009-04-08 08:43:35 51°20.709 3°1.541 10.1 25 8.2 100680 95
2009-04-08 08:43:40 51°20.717 3°1.563 11.5 24 8.2 100680 95
2009-04-08 08:43:45 51°20.724 3°1.586 11.1 23 8.2 100680 95
2009-04-08 08:43:50 51°20.73 3°1.609 10.4 26 8.2 100680 95
2009-04-08 08:43:55 51°20.737 3°1.632 9.8 19 8.2 100680 95
2009-04-08 08:43:59 51°20.743 3°1.651 10.1 22 8.2 100680 95
2009-04-08 08:44:05 51°20.751 3°1.678 12.2 27 8.2 100680 95
2009-04-08 08:44:10 51°20.758 3°1.701 11.3 24 8.2 100680 95
2009-04-08 08:44:15 51°20.765 3°1.724 12.1 23 8.2 100680 95
2009-04-08 08:44:19 51°20.771 3°1.742 11.3 22 8.2 100680 95
2009-04-08 08:44:25 51°20.779 3°1.77 10.3 24 8.2 100680 95
2009-04-08 08:44:30 51°20.785 3°1.793 12 22 8.2 100680 95
2009-04-08 08:44:35 51°20.792 3°1.817 10 25 8.2 100680 95
2009-04-08 08:44:40 51°20.8 3°1.839 10.5 20 8.2 100680 95
2009-04-08 08:44:45 51°20.805 3°1.863 10.5 24 8.2 100680 95
2009-04-08 08:44:50 51°20.813 3°1.886 10.6 20 8.2 100680 95
2009-04-08 08:44:55 51°20.819 3°1.91 10.8 18 8.2 100680 95
2009-04-08 08:44:59 51°20.824 3°1.928 11.2 23 8.2 100680 95
2009-04-08 08:45:05 51°20.831 3°1.957 12.3 25 8.2 100680 95
2009-04-08 08:45:10 51°20.838 3°1.98 11.8 26 8.2 100680 95
2009-04-08 08:45:15 51°20.844 3°2.003 11.2 25 8.2 100680 95
2009-04-08 08:45:19 51°20.849 3°2.022 11.6 23 8.2 100680 95
2009-04-08 08:45:25 51°20.857 3°2.05 10.3 22 8.2 100680 95
2009-04-08 08:45:30 51°20.863 3°2.073 9.7 22 8.2 100680 95
2009-04-08 08:45:35 51°20.869 3°2.096 10 20 8.2 100680 95
2009-04-08 08:45:40 51°20.876 3°2.118 10.1 13 8.2 100680 95
2009-04-08 08:45:45 51°20.883 3°2.142 10.1 20 8.2 100680 95
2009-04-08 08:45:50 51°20.889 3°2.165 11.8 22 8.2 100680 95
2009-04-08 08:45:55 51°20.896 3°2.188 10.4 20 8.2 100680 95
2009-04-08 08:46:00 51°20.903 3°2.211 11.4 22 8.2 100680 95
2009-04-08 08:46:05 51°20.91 3°2.234 11.2 21 8.2 100680 95
2009-04-08 08:46:10 51°20.916 3°2.258 10.4 25 8.2 100680 95
2009-04-08 08:46:15 51°20.923 3°2.28 9.2 21 8.2 100680 95
2009-04-08 08:46:19 51°20.928 3°2.299 10.7 24 8.2 100680 95
2009-04-08 08:46:25 51°20.937 3°2.326 12.2 21 8.2 100680 95
2009-04-08 08:46:30 51°20.944 3°2.349 12.6 23 8.2 100670 95
2009-04-08 08:46:35 51°20.949 3°2.373 9.6 17 8.2 100670 95
2009-04-08 08:46:40 51°20.957 3°2.395 12 22 8.2 100680 96
2009-04-08 08:46:45 51°20.963 3°2.418 13.4 25 8.2 100680 96
2009-04-08 08:46:50 51°20.97 3°2.44 10.1 23 8.2 100680 96
2009-04-08 08:46:55 51°20.978 3°2.463 11.5 16 8.2 100680 96
2009-04-08 08:47:00 51°20.984 3°2.486 12.5 19 8.2 100680 95
2009-04-08 08:47:05 51°20.99 3°2.509 11 25 8.2 100680 95
2009-04-08 08:47:10 51°20.998 3°2.531 11.6 20 8.2 100670 96
2009-04-08 08:47:15 51°21.005 3°2.554 11.6 25 8.2 100670 96
2009-04-08 08:47:19 51°21.01 3°2.573 9.9 26 8.2 100680 95
2009-04-08 08:47:25 51°21.018 3°2.601 11.5 20 8.2 100680 95
2009-04-08 08:47:30 51°21.024 3°2.625 11.8 22 8.2 100680 96
2009-04-08 08:47:35 51°21.031 3°2.648 12.8 21 8.2 100680 96
2009-04-08 08:47:39 51°21.036 3°2.667 11.5 21 8.2 100680 95
2009-04-08 08:47:45 51°21.044 3°2.695 11.9 21 8.2 100680 95
2009-04-08 08:47:50 51°21.05 3°2.718 10.5 20 8.2 100680 95
2009-04-08 08:47:55 51°21.057 3°2.742 13.2 26 8.2 100680 95
2009-04-08 08:48:00 51°21.065 3°2.765 12.6 20 8.2 100670 96
2009-04-08 08:48:05 51°21.071 3°2.788 13 21 8.2 100670 96
2009-04-08 08:48:10 51°21.077 3°2.812 12.7 19 8.2 100680 95
2009-04-08 08:48:15 51°21.083 3°2.836 10.3 18 8.2 100680 95
2009-04-08 08:48:20 51°21.09 3°2.859 15.5 23 8.2 100670 96
2009-04-08 08:48:25 51°21.096 3°2.883 11.5 20 8.2 100670 96
2009-04-08 08:48:30 51°21.104 3°2.905 13.4 22 8.2 100680 96
2009-04-08 08:48:35 51°21.109 3°2.93 12.3 23 8.2 100680 96
2009-04-08 08:48:39 51°21.116 3°2.948 13.2 24 8.2 100670 96
2009-04-08 08:48:45 51°21.123 3°2.977 11 20 8.2 100670 96
2009-04-08 08:48:50 51°21.13 3°2.999 12.6 20 8.2 100670 96
2009-04-08 08:48:55 51°21.136 3°3.023 11.5 22 8.2 100670 96
2009-04-08 08:49:00 51°21.143 3°3.047 12.9 22 8.2 100670 95
2009-04-08 08:49:05 51°21.15 3°3.07 9.4 23 8.2 100670 95
2009-04-08 08:49:10 51°21.155 3°3.095 9.5 20 8.2 100670 96
2009-04-08 08:49:15 51°21.162 3°3.117 11.5 18 8.2 100670 96
2009-04-08 08:49:20 51°21.167 3°3.141 11.2 19 8.2 100670 95
2009-04-08 08:49:25 51°21.174 3°3.165 12.8 20 8.2 100670 95
2009-04-08 08:49:30 51°21.18 3°3.188 12.4 22 8.2 100670 96
2009-04-08 08:49:35 51°21.186 3°3.211 12 21 8.2 100670 96
2009-04-08 08:49:39 51°21.191 3°3.229 10.3 17 8.2 100680 95
2009-04-08 08:49:45 51°21.199 3°3.257 11.9 18 8.2 100680 95
2009-04-08 08:49:50 51°21.206 3°3.28 11.9 20 8.2 100680 96
2009-04-08 08:49:55 51°21.212 3°3.303 10.6 22 8.2 100680 96
2009-04-08 08:50:00 51°21.218 3°3.327 12.9 20 8.2 100680 95
2009-04-08 08:50:05 51°21.224 3°3.351 13.1 23 8.2 100680 95
2009-04-08 08:50:10 51°21.23 3°3.374 12.6 26 8.2 100680 95
2009-04-08 08:50:15 51°21.234 3°3.399 10.1 15 8.2 100680 95
2009-04-08 08:50:20 51°21.24 3°3.423 11 12 8.2 100680 96
2009-04-08 08:50:25 51°21.246 3°3.447 11 19 8.2 100680 96
2009-04-08 08:50:30 51°21.253 3°3.47 9.4 15 8.2 100680 95
2009-04-08 08:50:35 51°21.259 3°3.494 11.8 21 8.2 100680 95
2009-04-08 08:50:39 51°21.264 3°3.512 12.7 24 8.2 100670 96
2009-04-08 08:50:45 51°21.271 3°3.54 11.4 22 8.2 100670 96
2009-04-08 08:50:51 51°21.279 3°3.569 11.1 20 8.2 100680 95
2009-04-08 08:50:55 51°21.283 3°3.588 10.7 19 8.2 100680 95
2009-04-08 08:50:59 51°21.288 3°3.608 10.4 21 8.3 100670 95
2009-04-08 08:51:05 51°21.295 3°3.636 10.9 19 8.3 100670 95
2009-04-08 08:51:10 51°21.301 3°3.66 8.4 28 8.2 100680 96
2009-04-08 08:51:15 51°21.308 3°3.684 9.3 21 8.2 100680 96
2009-04-08 08:51:20 51°21.314 3°3.707 9.6 19 8.3 100680 96
2009-04-08 08:51:25 51°21.321 3°3.73 11.4 22 8.3 100680 96
2009-04-08 08:51:30 51°21.327 3°3.753 10.6 24 8.3 100690 96
2009-04-08 08:51:35 51°21.334 3°3.777 11.8 21 8.3 100690 96
2009-04-08 08:51:40 51°21.34 3°3.801 12.4 21 8.3 100690 96
2009-04-08 08:51:45 51°21.346 3°3.824 12.5 20 8.3 100690 96
2009-04-08 08:51:50 51°21.352 3°3.848 12.1 18 8.3 100670 96
2009-04-08 08:51:55 51°21.357 3°3.871 11.6 22 8.3 100670 96
2009-04-08 08:51:59 51°21.361 3°3.891 11.8 21 8.3 100680 96
2009-04-08 08:52:05 51°21.369 3°3.919 13.2 19 8.3 100680 96
2009-04-08 08:52:10 51°21.373 3°3.944 10.6 19 8.3 100680 95
2009-04-08 08:52:15 51°21.381 3°3.967 11.1 19 8.3 100680 95
2009-04-08 08:52:20 51°21.386 3°3.992 11.9 23 8.3 100680 95
2009-04-08 08:52:25 51°21.392 3°4.015 12.8 21 8.3 100680 95
2009-04-08 08:52:30 51°21.397 3°4.04 12.9 21 8.3 100680 95
2009-04-08 08:52:35 51°21.403 3°4.064 13 21 8.3 100680 95
2009-04-08 08:52:40 51°21.407 3°4.089 12.2 20 8.3 100680 96
2009-04-08 08:52:45 51°21.413 3°4.113 13.5 19 8.3 100680 96
2009-04-08 08:52:50 51°21.417 3°4.138 12.1 22 8.3 100680 95
2009-04-08 08:52:55 51°21.423 3°4.162 10.9 11 8.3 100680 95
2009-04-08 08:53:00 51°21.428 3°4.186 15.9 14 8.3 100680 96
2009-04-08 08:53:05 51°21.434 3°4.21 15.2 21 8.3 100680 96
2009-04-08 08:53:10 51°21.44 3°4.234 15.3 22 8.3 100670 95
2009-04-08 08:53:15 51°21.445 3°4.259 15 15 8.3 100670 95
2009-04-08 08:53:20 51°21.451 3°4.283 11.3 18 8.3 100680 96
2009-04-08 08:53:25 51°21.456 3°4.308 12.6 20 8.3 100680 96
2009-04-08 08:53:30 51°21.461 3°4.332 12.5 17 8.3 100670 95
2009-04-08 08:53:35 51°21.466 3°4.357 13.1 20 8.3 100670 95
2009-04-08 08:53:40 51°21.472 3°4.382 13 19 8.3 100680 95
2009-04-08 08:53:45 51°21.477 3°4.406 10.9 23 8.3 100680 95
2009-04-08 08:53:50 51°21.482 3°4.43 11.7 19 8.3 100670 95
2009-04-08 08:53:55 51°21.488 3°4.455 11.1 18 8.3 100670 95
2009-04-08 08:54:00 51°21.494 3°4.479 10.1 17 8.3 100680 96
2009-04-08 08:54:05 51°21.499 3°4.503 11.2 21 8.3 100680 96
2009-04-08 08:54:10 51°21.505 3°4.527 10.4 17 8.3 100690 96
2009-04-08 08:54:15 51°21.511 3°4.552 11.4 20 8.3 100690 96
2009-04-08 08:54:20 51°21.516 3°4.576 10.5 19 8.3 100680 95
2009-04-08 08:54:25 51°21.522 3°4.601 11.6 20 8.3 100680 95
2009-04-08 08:54:30 51°21.528 3°4.626 11 19 8.3 100690 96
2009-04-08 08:54:35 51°21.534 3°4.651 11.4 19 8.3 100690 96
2009-04-08 08:54:39 51°21.539 3°4.671 10.8 16 8.3 100680 95
2009-04-08 08:54:45 51°21.545 3°4.7 10 20 8.3 100680 95
2009-04-08 08:54:50 51°21.55 3°4.725 10.7 18 8.3 100690 95
2009-04-08 08:54:55 51°21.556 3°4.75 11.2 24 8.3 100690 95
2009-04-08 08:55:00 51°21.561 3°4.774 10.6 25 8.3 100690 95
2009-04-08 08:55:05 51°21.567 3°4.799 10.7 16 8.3 100690 95
2009-04-08 08:55:10 51°21.572 3°4.823 12.5 13 8.3 100690 95
2009-04-08 08:55:15 51°21.579 3°4.847 13 22 8.3 100690 95
2009-04-08 08:55:20 51°21.583 3°4.872 10.8 22 8.3 100690 95
2009-04-08 08:55:25 51°21.59 3°4.896 11.3 24 8.3 100690 95
2009-04-08 08:55:30 51°21.594 3°4.92 10.6 20 8.3 100690 95
2009-04-08 08:55:35 51°21.6 3°4.945 12.4 17 8.3 100690 95
2009-04-08 08:55:40 51°21.606 3°4.969 13.7 22 8.3 100690 95
2009-04-08 08:55:45 51°21.611 3°4.994 15.1 21 8.3 100690 95
2009-04-08 08:55:50 51°21.617 3°5.018 13.1 23 8.3 100690 95
2009-04-08 08:55:55 51°21.622 3°5.043 13 27 8.3 100690 95
2009-04-08 08:56:00 51°21.629 3°5.067 12.3 21 8.3 100690 95
2009-04-08 08:56:05 51°21.633 3°5.092 9.8 21 8.3 100690 95
2009-04-08 08:56:10 51°21.639 3°5.116 12.5 21 8.3 100680 95
2009-04-08 08:56:15 51°21.644 3°5.141 11.2 20 8.3 100680 95
2009-04-08 08:56:20 51°21.649 3°5.166 11 18 8.4 100680 95
2009-04-08 08:56:25 51°21.655 3°5.19 12 18 8.4 100680 95
2009-04-08 08:56:30 51°21.661 3°5.215 14.3 21 8.3 100690 95
2009-04-08 08:56:35 51°21.666 3°5.24 12.4 22 8.3 100690 95
2009-04-08 08:56:40 51°21.672 3°5.264 14.6 19 8.4 100690 95
2009-04-08 08:56:45 51°21.677 3°5.289 12.3 22 8.4 100690 95
2009-04-08 08:56:50 51°21.684 3°5.313 14.6 23 8.3 100690 95
2009-04-08 08:56:55 51°21.689 3°5.338 14.1 25 8.3 100690 95
2009-04-08 08:57:00 51°21.695 3°5.363 13.5 22 8.4 100680 95
2009-04-08 08:57:05 51°21.701 3°5.388 11.3 25 8.4 100680 95
2009-04-08 08:57:10 51°21.707 3°5.412 11 21 8.3 100690 95
2009-04-08 08:57:15 51°21.712 3°5.437 11.7 10 8.3 100690 95
2009-04-08 08:57:20 51°21.719 3°5.46 13.8 16 8.3 100680 95
2009-04-08 08:57:25 51°21.724 3°5.484 11.7 22 8.3 100680 95
2009-04-08 08:57:30 51°21.73 3°5.508 12.8 18 8.4 100680 95
2009-04-08 08:57:35 51°21.736 3°5.533 12.4 26 8.4 100680 95
2009-04-08 08:57:40 51°21.741 3°5.556 11.4 20 8.4 100680 95
2009-04-08 08:57:45 51°21.747 3°5.581 11 17 8.4 100680 95
2009-04-08 08:57:50 51°21.753 3°5.606 10.6 16 8.4 100670 95
2009-04-08 08:57:55 51°21.758 3°5.63 11.5 19 8.4 100670 95
2009-04-08 08:57:59 51°21.761 3°5.65 10.3 18 8.4 100680 95
2009-04-08 08:58:05 51°21.769 3°5.679 11.5 22 8.4 100680 95
2009-04-08 08:58:10 51°21.774 3°5.704 9.8 20 8.4 100680 95
2009-04-08 08:58:15 51°21.78 3°5.728 9 20 8.4 100680 95
2009-04-08 08:58:20 51°21.785 3°5.752 9 20 8.4 100690 95
2009-04-08 08:58:25 51°21.791 3°5.777 10.3 18 8.4 100690 95
2009-04-08 08:58:30 51°21.797 3°5.801 11.9 21 8.4 100700 95
2009-04-08 08:58:35 51°21.803 3°5.825 12.3 22 8.4 100700 95
2009-04-08 08:58:40 51°21.809 3°5.85 12.4 24 8.4 100700 95
2009-04-08 08:58:45 51°21.814 3°5.875 10.3 19 8.4 100700 95
2009-04-08 08:58:50 51°21.821 3°5.898 10.5 17 8.4 100690 95
2009-04-08 08:58:55 51°21.826 3°5.923 11.3 20 8.4 100690 95
2009-04-08 08:59:00 51°21.833 3°5.946 11.5 23 8.4 100690 95
2009-04-08 08:59:05 51°21.838 3°5.971 10 22 8.4 100690 95
2009-04-08 08:59:10 51°21.845 3°5.995 11.8 20 8.4 100690 95
2009-04-08 08:59:15 51°21.85 3°6.02 12.8 21 8.4 100690 95
2009-04-08 08:59:20 51°21.856 3°6.045 10.4 22 8.4 100690 95
2009-04-08 08:59:25 51°21.863 3°6.07 10.8 16 8.4 100690 95
2009-04-08 08:59:30 51°21.868 3°6.094 12.5 23 8.4 100690 95
2009-04-08 08:59:35 51°21.873 3°6.119 10.9 14 8.4 100690 95
2009-04-08 08:59:40 51°21.88 3°6.143 11.1 22 8.4 100690 95
2009-04-08 08:59:45 51°21.885 3°6.168 11.1 15 8.4 100690 95
2009-04-08 08:59:50 51°21.892 3°6.191 13.2 22 8.4 100690 95
2009-04-08 08:59:55 51°21.896 3°6.217 10.7 23 8.4 100690 95
2009-04-08 09:00:00 51°21.903 3°6.241 11.9 24 8.4 100690 95
2009-04-08 09:00:05 51°21.908 3°6.266 10.1 22 8.4 100690 95
2009-04-08 09:00:10 51°21.914 3°6.291 11.5 18 8.4 100690 95
2009-04-08 09:00:15 51°21.919 3°6.317 11.6 20 8.4 100690 95
2009-04-08 09:00:20 51°21.925 3°6.341 10.6 20 8.4 100690 95
2009-04-08 09:00:25 51°21.931 3°6.366 10.1 20 8.4 100690 95
2009-04-08 09:00:30 51°21.937 3°6.39 10.4 19 8.4 100690 95
2009-04-08 09:00:35 51°21.943 3°6.415 11 19 8.4 100690 95
2009-04-08 09:00:40 51°21.948 3°6.439 12.3 20 8.4 100690 95
2009-04-08 09:00:45 51°21.955 3°6.464 12.2 19 8.4 100690 95
2009-04-08 09:00:50 51°21.96 3°6.489 10.9 21 8.4 100690 95
2009-04-08 09:00:55 51°21.966 3°6.513 10.8 22 8.4 100690 95
2009-04-08 09:01:00 51°21.971 3°6.539 9.4 15 8.4 100700 95
2009-04-08 09:01:05 51°21.977 3°6.563 11.2 21 8.4 100700 95
2009-04-08 09:01:10 51°21.984 3°6.588 11.6 19 8.4 100690 95
2009-04-08 09:01:15 51°21.988 3°6.614 9.8 22 8.4 100690 95
2009-04-08 09:01:20 51°21.994 3°6.638 10 20 8.4 100700 95
2009-04-08 09:01:25 51°22 3°6.663 10.2 24 8.4 100700 95
2009-04-08 09:01:30 51°22.005 3°6.688 10.3 25 8.4 100700 95
2009-04-08 09:01:35 51°22.011 3°6.713 9.5 22 8.4 100700 95
2009-04-08 09:01:40 51°22.017 3°6.738 11 20 8.4 100700 95
2009-04-08 09:01:45 51°22.022 3°6.763 10 21 8.4 100700 95
2009-04-08 09:01:50 51°22.029 3°6.786 10.1 22 8.4 100700 95
2009-04-08 09:01:55 51°22.033 3°6.812 10.2 25 8.4 100700 95
2009-04-08 09:01:59 51°22.038 3°6.832 10.5 25 8.4 100700 95
2009-04-08 09:02:05 51°22.045 3°6.861 12.2 20 8.4 100700 95
2009-04-08 09:02:10 51°22.049 3°6.886 10.9 20 8.4 100700 95
2009-04-08 09:02:15 51°22.056 3°6.911 12.7 21 8.4 100700 95
2009-04-08 09:02:20 51°22.061 3°6.936 12.6 21 8.4 100690 95
2009-04-08 09:02:25 51°22.067 3°6.96 12.5 26 8.4 100690 95
2009-04-08 09:02:30 51°22.072 3°6.986 12 24 8.4 100690 95
2009-04-08 09:02:35 51°22.079 3°7.011 12.5 24 8.4 100690 95
2009-04-08 09:02:40 51°22.084 3°7.036 12.2 23 8.4 100690 95
2009-04-08 09:02:45 51°22.089 3°7.061 11.5 24 8.4 100690 95
2009-04-08 09:02:50 51°22.095 3°7.086 9.9 22 8.4 100680 95